Home > Weather > Kongsvinger > Past weeks

Flag for Norway Weather for the Past 2 Weeks in Kongsvinger, Norway

Now
45 °F

Light rain. Passing clouds.


Feels Like: 42 °F
Forecast: 34 / 60 °F
Wind: 5 mph from Southeast

Location: Oslo Gardermoen Airport

Current Time: May 3, 2016 at 5:15:14 AM

Latest Report: May 3, 2016 at 3:50 AM


Visibility: N/A

Pressure: 29.95 "Hg

Humidity: 71%

Dew Point: 36 °F

Location of KongsvingerLocation

Historic Weather in Kongsvinger — Graph

°F

Kongsvinger Temperature Yesterday

Maximum temperature yesterday: 50 °F (at 1:50 PM)
Minimum temperature yesterday: 36 °F (at 1:50 AM)
Average temperature yesterday: 44 °F

High & Low Weather Summary for the Past Weeks

 TemperatureHumidityPressure
High55 °F (Apr 21, 2:50 PM)100% (May 1, 1:20 AM)30.24 "Hg (May 1, 1:20 AM)
Low27 °F (Apr 23, 4:50 AM)19% (Apr 21, 2:50 PM)29.36 "Hg (Apr 18, 5:50 PM)
Average41 °F56%29.85 "Hg
* Reported Apr 18 3:20 AM — May 3 3:20 AM, Kongsvinger, Weather by CustomWeather, © 2016

Note: Actual official high and low records may vary slightly from our data, if they occured in-between our weather recording intervals... More about our weather records

Advertising

Kongsvinger Weather History for the Previous 24 Hours

Scroll right to see more
 ConditionsComfort  
Time TempWeatherWind HumidityBarometerVisibility
3:20 AM
Tue, May 3
45 °FOvercast.8 mph61%29.95 "HgN/A
2:50 AM45 °FMostly cloudy.7 mph61%29.98 "HgN/A
2:20 AM45 °FMostly cloudy.6 mph61%29.98 "HgN/A
1:50 AM45 °FOvercast.5 mph61%29.98 "HgN/A
1:20 AM45 °FSprinkles. Overcast.7 mph61%30.01 "HgN/A
12:50 AM45 °FOvercast.6 mph61%30.01 "HgN/A
11:50 PM
Mon, May 2
45 °FClear.6 mph57%30.01 "Hg10 mi
11:20 PM45 °FClear.7 mph57%30.01 "Hg10 mi
10:50 PM45 °FPassing clouds.7 mph53%30.01 "HgN/A
10:20 PM45 °FClear.6 mph53%30.04 "Hg10 mi
9:50 PM45 °FSunny.8 mph49%30.04 "Hg10 mi
9:20 PM46 °FSunny.9 mph46%30.04 "Hg10 mi
8:50 PM46 °FSunny.13 mph46%30.04 "Hg10 mi
8:20 PM46 °FBroken clouds.23 mph46%30.04 "HgN/A
7:50 PM46 °FBroken clouds.21 mph43%30.07 "HgN/A
6:50 PM48 °FPassing clouds.20 mph40%30.07 "HgN/A
6:20 PM50 °FSunny.18 mph35%30.07 "Hg10 mi
5:50 PM48 °FSunny.22 mph27%30.07 "Hg10 mi
5:20 PM48 °FSunny.20 mph32%30.09 "Hg10 mi
4:50 PM50 °FPassing clouds.21 mph28%30.09 "HgN/A
4:20 PM50 °FSunny.20 mph28%30.09 "Hg10 mi
3:50 PM50 °FSunny.22 mph30%30.09 "Hg10 mi
3:20 PM50 °FSunny.21 mph30%30.09 "Hg10 mi
2:50 PM50 °FSunny.22 mph32%30.12 "Hg10 mi
2:20 PM48 °FSunny.18 mph34%30.12 "Hg10 mi
1:50 PM50 °FPartly sunny.18 mph37%30.12 "HgN/A
1:20 PM48 °FPassing clouds.17 mph40%30.12 "HgN/A
12:50 PM46 °FPassing clouds.16 mph40%30.15 "HgN/A
12:20 PM46 °FPartly sunny.15 mph40%30.15 "HgN/A
11:50 AM46 °FPartly sunny.17 mph50%30.15 "HgN/A
11:20 AM46 °FPartly sunny.15 mph53%30.15 "HgN/A
10:50 AM46 °FPartly sunny.15 mph57%30.15 "HgN/A
10:20 AM45 °FPartly sunny.14 mph66%30.15 "HgN/A
9:50 AM43 °FBroken clouds.15 mph71%30.18 "HgN/A
9:20 AM43 °FBroken clouds.14 mph76%30.18 "HgN/A
8:50 AM43 °FBroken clouds.15 mph71%30.18 "HgN/A
8:20 AM41 °FBroken clouds.13 mph81%30.18 "HgN/A
6:50 AM39 °FPartly sunny.7 mph87%30.18 "HgN/A
6:20 AM37 °FSunny.9 mph87%30.18 "Hg10 mi
5:50 AM37 °FClear.8 mph93%30.18 "Hg10 mi
5:20 AM37 °FPassing clouds.7 mph87%30.18 "HgN/A
Weather by CustomWeather, © 2016

See weather overviewHow to use our weather pages